Regional Weather Roundup
Issued by NWS

Home | Current Version | Previous Version | Graphics & Text | Print | Product List | Glossary On
Versions: 1 2 3 4 5 6 7 8 9 10 11 12 13 14 15 16 17 18 19 20 21 22 23 24 25 26 27
000
ASUS45 KBOU 200010
RWRCO

WEATHER ROUNDUP FOR COLORADO
NATIONAL WEATHER SERVICE DENVER/BOULDER CO
500 PM MST FRI JAN 19 2018

NOTE: "FAIR" INDICATES FEW OR NO CLOUDS BELOW 12000 FEET WITH NO
SIGNIFICANT WEATHER AND/OR OBSTRUCTIONS TO VISIBILITY.

COZ001>005-013-030-031-200100-
...NORTHWEST COLORADO...

CITY           SKY/WX    TMP DP  RH WIND       PRES   REMARKS
CRAIG          FAIR      45  23  42 SW9       29.83S
HAYDEN         FAIR     N/A N/A N/A CALM      29.84S
MEEKER         FAIR      49  22  34 VRB3      29.85R
RABBIT EARS PA FAIR      30  21  69 W12G24    29.92F WCI  21
STEAMBOAT SPGS FAIR      38  22  52 CALM      29.84F
WALDEN         FAIR      39  18  41 SW16      29.87S
$$

COZ006>008-011-200100-
...WEST CENTRAL VALLEYS...

CITY           SKY/WX    TMP DP  RH WIND       PRES   REMARKS
GRAND JUNCTION FAIR      45  21  38 CALM      29.87F
MONTROSE       FAIR      54  20  26 N3        29.91F
EAGLE          FAIR      51  19  28 NW6       29.88F
RIFLE          FAIR      45  22  40 S7        29.87S
DELTA          FAIR      55  20  25 CALM      29.88S
NUCLA          FAIR      55  19  24 S9        29.97S
$$

COZ017>023-064>068-200100-
...SOUTHWEST COLORADO...

CITY           SKY/WX    TMP DP  RH WIND       PRES   REMARKS
DURANGO        FAIR      52  20  28 SW6       29.99S
CORTEZ         FAIR      55  20  25 CALM      29.96F
PAGOSA SPRINGS FAIR      49  13  23 SW9       30.02S
TELLURIDE      FAIR      47  17  29 SW3       30.06S
WOLF CREEK PAS FAIR      28  14  54 S15G24    30.17S WCI  17
$$

COZ009-010-012-014-032>034-037-058>063-200100-
...CENTRAL COLORADO...

CITY           SKY/WX    TMP DP  RH WIND       PRES   REMARKS
ASPEN          FAIR      47  20  34 CALM      29.91S
BUENA VISTA    FAIR      49  13  22 W10G21    29.91S
COPPER MTN     NOT AVBL
BERTHOUD PASS  FAIR      28  18  64 W33G54    30.01R WCI  12
COTTONWOOD PAS   N/A     48  14  25 W21G36    29.97R
GUNNISON       FAIR      39  16  39 CALM      29.97S
KREMMLING      FAIR      52  19  28 SW13G18   29.87S
LEADVILLE      FAIR      38  14  37 N7        29.97R
MONARCH PASS   FAIR      32  16  51 W36G51    30.15F WCI  16
SALIDA         FAIR      53  16  23 SW12G20   29.98S
SUNLIGHT       FAIR      32  18  55 SW14G25   30.03F WCI  22
WILKERSON PASS FAIR      37   3  23 SW18G31   30.02R
$$

COZ069>075-200100-
...SAN LUIS VALLEY/SANGRE DE CRISTO MOUNTAINS...

CITY           SKY/WX    TMP DP  RH WIND       PRES   REMARKS
ALAMOSA        FAIR      50   9  19 CALM      29.94F
DEL NORTE      FAIR      43   7  22 SE3       29.97S
LA VETA PASS   FAIR      41  14  33 S15G40      N/A
SAGUACHE       FAIR      43   7  22 CALM      29.97S
$$

COZ035-036-038>040-200100-
...NORTHERN COLORADO FRONT RANGE...

CITY           SKY/WX    TMP DP  RH WIND       PRES   REMARKS
DENVER INTL AP MOCLDY    54  23  30 SE7       29.72R
DMNS CITY PARK NOT AVBL
AURORA         MOCLDY    55  21  26 E6        29.73R
FRONT RANGE AP MOCLDY    57  25  28 E14       29.73S
ERIE MUNI ARPT FAIR      63  11  13 W8        29.76R
BOULDER MUN AP FAIR      64  16  15 SW15G28   29.71S
CENTENNIAL     MOCLDY    61  21  21 N7        29.73R
BROOMFIELD     MOCLDY    63  16  16 NE3       29.73R
FORT COLLINS   FAIR      63  20  19 CALM      29.71R
LONGMONT       FAIR      65  14  14 SW6       29.72R
$$

COZ041-046-047-076>085-087-088-200100-
...PIKES PEAK/PALMER DIVIDE AND SOUTHERN FOOTHILLS...

CITY           SKY/WX    TMP DP  RH WIND       PRES   REMARKS
COLO. SPRINGS  MOCLDY    62  16  16 SW13      29.80R
A. F. ACADEMY  FAIR      58  11  15 S7        29.80R
SCHRIEVER AFB  FAIR      57  13  17 W10       29.80S
CHEYENNE MTN   FAIR      56  13  18 SW5       29.79R
ELLICOTT         N/A    N/A N/A N/A W10       29.79R
FALCON         FAIR      55  10  17 SW10      29.83F
FORT CARSON    FAIR      60  15  17 SW12      29.78R
LIMON          FAIR      42  21  43 CALM      29.75R
MONUMENT HILL  FAIR      54  12  19 SW10      29.82F
CANON CITY     FAIR      63  19  19 SW10      29.78S
WALSENBURG     FAIR      63  16  16 W15G22    29.84R
TRINIDAD       FAIR      58  15  18 SW9       29.82R
$$

COZ042>045-048>051-090-091-200100-
...NORTHEAST COLORADO...

CITY           SKY/WX    TMP DP  RH WIND       PRES   REMARKS
GREELEY ARPT   FAIR      48  24  39 SE6       29.70R
AKRON          FAIR      47  21  35 MISG      29.71S
BURLINGTON     FAIR      52  20  28 SE3       29.72R
WRAY           FAIR      52  23  32 CALM      29.70R
YUMA           FAIR      45  19  36 CALM      29.70S
STERLING       FAIR      39  25  56 S6        29.68S
HOLYOKE        FAIR      46  27  46 W3        29.69R
FORT MORGAN    FAIR      50  16  26 CALM      29.70F
$$

COZ086-089-092>099-200100-
...SOUTHEAST COLORADO...

CITY           SKY/WX    TMP DP  RH WIND       PRES   REMARKS
PUEBLO         FAIR      65  15  14 SW6       29.74S
LA JUNTA       FAIR      62  19  19 S5        29.71S
LAMAR          FAIR      58  15  18 SW6       29.68R
SPRINGFIELD      N/A     59  15  18 W5        29.74R
$$




USA.gov is the U.S. government's official web portal to all federal, state and local government web resources and services.